weather.gov     
National Weather Service

Weather Roundup
NWS Homepage
This page is being discontinued on March 12, 2014.
The same data is available at this site. Please update your bookmarks.
Thank you, and we apologize for the inconvenience.
Please send an email to SR-SRH.Webmaster@noaa.gov with any concerns.


Current Version
Previous Version:    01  02  03  04  05  06  07  08  09  10  11  12  13  14  15  16  17  18  19  20  21  22  23  24  25  26  27  28  29  30  
   31  32  33  34  35  36  37  38  39  40  41  42  43  44  45  46  47  48  49  50  51  52  53  54  55  56  57  58  59  60  
[Printable]
368
ASUS44 KCRP 230310
HRRCRP

SOUTH TEXAS REGIONAL WEATHER ROUNDUP
NATIONAL WEATHER SERVICE CORPUS CHRISTI TX
900 PM CST SAT NOV 22 2014


TXZ229>244-230400-
...CORPUS CHRISTI AREA OBSERVATIONS...

CITY           SKY/WX    TMP DP  RH WIND       PRES   REMARKS
CORPUS CHRISTI RAIN      65  60  84 S7        29.80F
NAS CORPUS CHR TSTM      63  63 100 NW15      29.77F
ROCKPORT       TSTM      62  58  86 NW6       29.80F FOG
KINGSVILLE NAS RAIN      65  63  93 NE6       29.78F
ALICE          HVY RAIN  64  61  90 SE12      29.79R
FALFURRIAS     CLOUDY    63  61  93 SE13      29.78F
$$

...VICTORIA AREA OBSERVATIONS...

CITY           SKY/WX    TMP DP  RH WIND       PRES   REMARKS
VICTORIA       CLOUDY    73  60  63 S18G28    29.74F
BEEVILLE       MOCLDY    68  61  79 S13G23    29.77R
PLEASANTON     RAIN      60  55  83 CALM      29.79S
SAN ANTONIO    LGT RAIN  63  56  78 W20G25    29.83R
$$

...LAREDO AREA OBSERVATIONS...

CITY           SKY/WX    TMP DP  RH WIND       PRES   REMARKS
LAREDO         PTCLDY    63  58  83 N6G16     29.82R
COTULLA        PTCLDY    63  53  70 NE6       29.78R
DEL RIO        CLEAR     56  53  90 NW3       29.78S
MCALLEN        HVY RAIN  65  62  90 N13       29.81R FOG
HEBBRONVILLE   CLOUDY    61  59  92 SE3       29.79S
$$

...OTHER TEXAS OBSERVATIONS...

CITY           SKY/WX    TMP DP  RH WIND       PRES   REMARKS
BROWNSVILLE    CLOUDY    75  72  90 S15       29.75R
HOUSTON        TSTM      66  64  94 SE7       29.79F FOG
COL. STATION   CLOUDY    65  64  97 S10       29.76F
AUSTIN         HAIL      59  59 100 S16       29.81R FOG
WACO           LGT RAIN  60  59  96 N13       29.81R
FORT WORTH     CLOUDY    55  55 100 SE5       29.76F
WICHITA FALLS  CLOUDY    52  52 100 CALM      29.74F
LUBBOCK        CLEAR     51  49  92 S12       29.76R FOG
EL PASO        PTCLDY    61  17  18 W10       29.92R
$$

...MARINE OBSERVATIONS...

STATION/POSITION TIME  SKY/WX   TEMP    WIND        PRES    VSBY  WAVE   SWELL
                                AIR SEA DIR/SP/G                  HT/PER HT/PER
                 (UTC)          (F)     (DEG/KT/KT) (MB)    (MI)  (FT/S) (FT/S)
PORT ARANSAS     0300            65 63  330/ 10/ 11 1009.3F
BUOY 90 E PORT A 0300            73 73  130/ 16/ 19 1007.8F         7/ 7
BUOY 45 SE BAFFI 0300            75 74  170/ 16/ 19 1006.0F         7/ 8
BUOY 200 E PT IS 0300            75 75  140/ 17/ 21 1010.1R         7/ 7   2/15
BUOY 15 E GALVES 0300            65 61  160/  8/ 10 1010.8S         5/ 6   5/ 6
$$




U.S. Dept. of Commerce
NOAA National Weather Service
1325 East West Highway
Silver Spring, MD 20910
E-mail: w-nws.webmaster@noaa.gov
Page last modified: May 16, 2007
NATIONAL WEATHER SERVICE: for Safety, for Work, for Fun - FOR LIFE